[[{"header":{"parameterUnit":"m.s-1","parameterCategory":2,"la1":30.2991,"la2":30.254,"lo1":-89.0895,"lo2":-89.0444,"dy":0.0017,"dx":0.0017,"nx":28,"ny":28,"refTime":"2024-09-02T21:00:00:Z","depth":"0","parameterNumber":2,"parameterNumberName":"U-component_of_CURRENTS"},"data":[0,0,0,0,0,0,0,0,0,0,0,0,0,0,0,0,0,0,0,0,0,0,0,0,0,0,0,0,0,0,0,0,0,0,0,0,0,0,0,0,0,0,0,0,0,0,0,0,0,0,0,0,0,0,0,0,0,0,0.1189,0.119,0,0.128,0.1281,0.1282,0.1277,0.1276,0.1275,0.1274,0.1329,0.1331,0.1334,0,0,0,0,0,0,0,0,0,0,0,0,0,0.1039,0.1041,0.1189,0.119,0.1192,0.128,0.1281,0.1283,0.1278,0.1276,0.1275,0.1273,0.1328,0.1331,0.1334,0,0,0,0,0,0,0,0,0,0,0,0,0,0.1114,0.1042,0.1189,0.1201,0.1203,0.128,0.1282,0.1283,0.1278,0.1276,0.1274,0.1273,0.1327,0.1331,0.1334,0.1396,0,0,0.1346,0.1348,0,0,0,0,0,0,0,0,0.1109,0.1119,0.1198,0.12,0.1202,0.1266,0.1249,0.1319,0.1278,0.1248,0.1274,0.1272,0.1307,0.1312,0.1332,0.1398,0.1401,0.1347,0.1349,0.1351,0.1352,0,0,0,0,0,0,0,0.1104,0.1115,0.1224,0.1199,0.1202,0.1211,0.1219,0.1262,0.1285,0.1251,0.1251,0.1263,0.1307,0.1329,0.1334,0.1401,0.1347,0.135,0.1353,0.1354,0.1606,0.161,0,0,0,0,0,0,0.1096,0.1111,0.1222,0.1227,0.1151,0.1215,0.1224,0.1247,0.1286,0.129,0.1265,0.1263,0.1323,0.1329,0.1335,0.1485,0.1351,0.1354,0.1357,0.1602,0.1607,0.1612,0,0,0,0,0,0,0.1093,0.1106,0.1218,0.1171,0.1186,0.1219,0.1245,0.125,0.1279,0.1297,0.13,0.1289,0.1322,0.133,0.1398,0.1484,0.1356,0.136,0.1597,0.1603,0.1609,0.1736,0,0,0,0,0,0,0.1088,0.1104,0.1123,0.1171,0.1188,0.1287,0.1247,0.1253,0.1289,0.1288,0.132,0.1322,0.1321,0.1393,0.1402,0.1487,0.1363,0.1591,0.16,0.1607,0.1727,0.1747,0.1763,0,0,0,0,0,0.1083,0.1125,0.1123,0.1137,0.1211,0.129,0.1301,0.1316,0.1292,0.133,0.1347,0.1321,0.1452,0.1399,0.1409,0.1497,0.1587,0.1597,0.1607,0.1719,0.1743,0.1763,0,0,0,0,0,0,0.1086,0.113,0.1129,0.1186,0.124,0.1289,0.1329,0.133,0.1375,0.1372,0.1367,0.1375,0.1476,0.147,0.1412,0.1598,0.152,0.1533,0.1602,0.1625,0.1643,0.1663,0.1366,0,0,0,0,0,0.1091,0.113,0.1177,0.1231,0.1256,0.1292,0.1324,0.134,0.1382,0.1399,0.142,0.1459,0.1529,0.1557,0.161,0.17,0.1708,0.1769,0.1787,0.1802,0.183,0.1901,0.1928,0.1644,0.1644,0.1644,0,0,0.1107,0.1141,0.1162,0.1234,0.1273,0.1341,0.1308,0.1377,0.1441,0.1401,0.1493,0.1525,0.1569,0.168,0.1725,0.168,0.1893,0.1815,0.1827,0.1847,0.1914,0.1941,0.1966,0.165,0.1649,0.1648,0,0,0.1165,0.1193,0.1238,0.129,0.1358,0.1393,0.1415,0.1476,0.1509,0.1596,0.1602,0.1693,0.1759,0.1837,0.1876,0.2032,0.1992,0.2037,0.2142,0.2212,0.2235,0.2255,0.2315,0.2339,0.204,0.204,0.2041,0,0.1182,0.125,0.127,0.1336,0.139,0.1419,0.1492,0.155,0.1627,0.1666,0.1641,0.1806,0.1853,0.2009,0.2077,0.2079,0.2085,0.2047,0.2233,0.2254,0.2272,0.2328,0.2354,0.2048,0.2047,0.2046,0.2045,0,0.1264,0.1332,0.1377,0.1463,0.1521,0.1606,0.1672,0.1736,0.1765,0.1811,0.195,0.2024,0.2114,0.2165,0.2175,0.235,0.2301,0.2248,0.2168,0.2308,0.2359,0.2383,0.2058,0.2056,0.2053,0.2052,0,0,0.128,0.1406,0.1423,0.1479,0.1597,0.1653,0.1771,0.1881,0.1949,0.2036,0.214,0.2308,0.2321,0.2372,0.2407,0.2492,0.266,0.2432,0.2432,0.2476,0.2797,0.2796,0.2821,0.2609,0.2614,0.2617,0.2782,0,0.1347,0.147,0.1524,0.1664,0.1738,0.1806,0.1909,0.2005,0.2079,0.2187,0.229,0.2405,0.2405,0.246,0.2556,0.2629,0.2727,0.262,0.2669,0.2672,0.264,0.2852,0.2817,0.2964,0.2805,0.2809,0.2812,0,0.1407,0.1487,0.1612,0.1755,0.1791,0.1873,0.2015,0.2115,0.2265,0.2319,0.2439,0.2494,0.2684,0.2637,0.2842,0.2754,0.281,0.2853,0.2858,0.2832,0.2717,0.2798,0.3013,0.2976,0.2849,0.2846,0.2843,0,0.1393,0.1552,0.1648,0.1702,0.186,0.1924,0.2009,0.2148,0.2226,0.2407,0.2464,0.2648,0.2747,0.2849,0.2949,0.2898,0.3132,0.3058,0.3117,0.3114,0.309,0.3079,0.3266,0.3221,0.322,0.322,0.322,0,0.1453,0.1535,0.1643,0.1705,0.1808,0.1918,0.2035,0.2139,0.2288,0.2389,0.2525,0.264,0.28,0.293,0.3001,0.315,0.3173,0.3205,0.3188,0.3136,0.3127,0.3091,0.3034,0.3226,0.3225,0.3224,0.3223,0,0.1444,0.1524,0.1629,0.177,0.1807,0.1877,0.2017,0.21,0.2241,0.2379,0.2439,0.2664,0.285,0.298,0.3177,0.3223,0.3294,0.3385,0.3316,0.3291,0.3308,0.3258,0.3265,0.3168,0.3512,0.3514,0.3515,0,0.1452,0.1506,0.1627,0.1669,0.1738,0.1837,0.1905,0.2059,0.2142,0.2385,0.2453,0.2688,0.2839,0.3133,0.3285,0.3446,0.3338,0.3508,0.3441,0.3381,0.3312,0.3116,0.3018,0.3461,0.3462,0.3463,0.3463,0,0.1469,0.15,0.1576,0.1646,0.1714,0.1783,0.1892,0.1939,0.2126,0.2246,0.244,0.2587,0.2905,0.3112,0.3348,0.3442,0.3377,0.3524,0.3494,0.3356,0.3125,0.2996,0.326,0.3468,0.3467,0.3467,0.3467,0.3467,0.1455,0.1488,0.1567,0.1637,0.1688,0.1734,0.1769,0.1876,0.199,0.2174,0.236,0.2571,0.294,0.3289,0.3346,0.3515,0.3395,0.3531,0.3497,0.332,0.3173,0.3457,0.361,0.361,0.3611,0.3611,0.3611,0,0.1462,0.1505,0.1558,0.1627,0.1648,0.1696,0.1766,0.1792,0.1881,0.2108,0.2273,0.2659,0.2936,0.3205,0.3527,0.3522,0.3324,0.3485,0.3226,0.3145,0.3472,0.3418,0.3497,0.3497,0.3497,0.3497,0.3497,0.3497,0.1472,0.1525,0.1556,0.1585,0.1611,0.162,0.1639,0.1675,0.181,0.204,0.2272,0.2489,0.2958,0.3414,0.3572,0.352,0.3262,0.317,0.3081,0.3364,0.3365,0.3365,0.3306,0.336,0.336,0.2652,0.2647,0.2643]},{"header":{"parameterUnit":"m.s-1","parameterCategory":2,"la1":30.2991,"la2":30.254,"lo1":-89.0895,"lo2":-89.0444,"dy":0.0017,"dx":0.0017,"nx":28,"ny":28,"refTime":"2024-09-02T21:00:00:Z","depth":"0","parameterNumber":3,"parameterNumberName":"V-component_of_CURRENTS"},"data":[0,0,0,0,0,0,0,0,0,0,0,0,0,0,0,0,0,0,0,0,0,0,0,0,0,0,0,0,0,0,0,0,0,0,0,0,0,0,0,0,0,0,0,0,0,0,0,0,0,0,0,0,0,0,0,0,0,0,-0.0026,-0.0026,0,-0.0075,-0.0075,-0.0076,-0.0143,-0.0144,-0.0146,-0.0147,-0.0115,-0.0113,-0.0111,0,0,0,0,0,0,0,0,0,0,0,0,0,0.001,0.001,-0.0026,-0.0026,-0.0027,-0.0075,-0.0075,-0.0076,-0.0143,-0.0144,-0.0146,-0.0147,-0.0115,-0.0113,-0.0111,0,0,0,0,0,0,0,0,0,0,0,0,0,-0.0017,0.001,-0.0026,-0.0067,-0.0072,-0.0075,-0.0075,-0.0076,-0.0142,-0.0144,-0.0146,-0.0148,-0.0116,-0.0113,-0.011,-0.0053,0,0,-0.0101,-0.01,0,0,0,0,0,0,0,0,-0.0016,-0.0018,-0.0061,-0.0065,-0.007,-0.0106,-0.0051,-0.0065,-0.0142,-0.0114,-0.0147,-0.0149,-0.0104,-0.0102,-0.0106,-0.0052,-0.005,-0.0101,-0.0099,-0.0097,-0.0097,0,0,0,0,0,0,0,-0.0014,-0.0017,-0.0044,-0.0061,-0.0067,-0.0084,-0.009,-0.0054,-0.0095,-0.0117,-0.0122,-0.0129,-0.0106,-0.0109,-0.0105,-0.005,-0.0101,-0.0098,-0.0096,-0.0095,0.016,0.0165,0,0,0,0,0,0,-0.0009,-0.0015,-0.0042,-0.0045,-0.0049,-0.0083,-0.009,-0.0091,-0.0097,-0.0101,-0.0128,-0.0132,-0.0113,-0.0109,-0.0104,0.0054,-0.0097,-0.0095,-0.0093,0.0155,0.0161,0.0166,0,0,0,0,0,0,-0.0007,-0.001,-0.004,-0.0033,-0.0038,-0.0082,-0.0083,-0.0091,-0.0087,-0.0107,-0.0109,-0.0115,-0.0114,-0.0109,-0.0038,0.0051,-0.0093,-0.009,0.0149,0.0157,0.0164,0.0313,0,0,0,0,0,0,-0.0006,-0.0009,-0.0002,-0.0032,-0.0038,0.0007,-0.0082,-0.0091,-0.009,-0.0096,-0.0095,-0.0096,-0.0115,-0.0042,-0.0035,0.0053,-0.0088,0.0143,0.0153,0.0161,0.0302,0.0324,0.0344,0,0,0,0,0,-0.0004,0.0025,-0.0001,-0.0005,-0.0029,0.001,0.0009,-0.0031,-0.0087,-0.0043,-0.0055,-0.0096,0.0022,-0.0036,-0.0028,0.0062,0.0138,0.015,0.0161,0.0292,0.032,0.0343,0,0,0,0,0,0,0.0053,0.002,-0.001,0.0009,0.0026,-0.0001,0.0027,-0.0012,0.0007,0.0003,-0.0042,-0.0038,0.006,0.005,-0.0014,0.0168,0.0079,0.0092,0.0177,0.0203,0.0223,0.024,-0.0086,0,0,0,0,0,0.0067,0.0081,0.0058,0.0086,0.0095,0.0061,0.0067,0.0051,0.0055,0.0058,0.0058,0.0074,0.0114,0.0144,0.0182,0.0278,0.0211,0.0348,0.0369,0.0386,0.041,0.0353,0.0369,0.0203,0.0203,0.0203,0,0,0.009,0.0083,0.0085,0.01,0.0102,0.0177,0.0063,0.0107,0.0173,0.0066,0.0168,0.015,0.0157,0.0264,0.0309,0.0264,0.0405,0.04,0.0415,0.0429,0.0366,0.0381,0.0395,0.021,0.0209,0.0208,0,0,0.0203,0.0153,0.0224,0.0255,0.0282,0.027,0.029,0.0293,0.0296,0.0382,0.0322,0.0357,0.0428,0.0445,0.0459,0.0627,0.0514,0.0646,0.0769,0.0715,0.0726,0.0735,0.0676,0.0679,0.066,0.066,0.066,0,0.0236,0.0319,0.0259,0.0362,0.0399,0.0326,0.0438,0.045,0.048,0.0488,0.0453,0.0518,0.0523,0.0615,0.0678,0.0676,0.0606,0.0661,0.0735,0.0743,0.075,0.0687,0.0687,0.0668,0.0667,0.0667,0.0666,0,0.0422,0.049,0.0546,0.0639,0.0676,0.0761,0.0762,0.0793,0.0765,0.0758,0.0826,0.0811,0.0833,0.0858,0.0823,0.0896,0.0819,0.0755,0.0653,0.0774,0.0702,0.07,0.0681,0.0678,0.0675,0.0673,0,0,0.0483,0.0642,0.0664,0.0749,0.0823,0.0873,0.0971,0.1023,0.1056,0.1076,0.1127,0.1187,0.1108,0.1122,0.1069,0.1042,0.1037,0.0932,0.0924,0.0844,0.0896,0.0851,0.0843,0.0953,0.0954,0.0955,0.0825,0,0.065,0.0885,0.0913,0.112,0.1227,0.1191,0.1285,0.131,0.1292,0.1326,0.1274,0.132,0.123,0.1229,0.1192,0.1069,0.1038,0.1077,0.0818,0.0812,0.0731,0.0843,0.0766,0.0645,0.0822,0.0822,0.0821,0,0.0825,0.0953,0.1188,0.1337,0.1376,0.148,0.1536,0.1614,0.161,0.1593,0.1575,0.1504,0.1494,0.139,0.1231,0.1243,0.1103,0.0997,0.0987,0.0893,0.0765,0.0557,0.0633,0.0397,0.0817,0.0817,0.0817,0,0.0897,0.1133,0.1316,0.138,0.154,0.1608,0.1672,0.169,0.1742,0.1747,0.1763,0.1689,0.1672,0.1484,0.1254,0.1232,0.1044,0.0974,0.0808,0.0801,0.0666,0.0647,0.046,0.0876,0.0876,0.0876,0.0877,0,0.1055,0.1204,0.1366,0.147,0.1639,0.1712,0.1846,0.1869,0.1925,0.1997,0.1904,0.1929,0.169,0.1537,0.1304,0.1048,0.1067,0.0859,0.078,0.0721,0.071,0.044,0.0336,0.0871,0.0872,0.0873,0.0874,0,0.1139,0.1256,0.1455,0.1635,0.1687,0.1802,0.196,0.2041,0.2083,0.2167,0.2182,0.2111,0.1914,0.1635,0.1339,0.1136,0.0733,0.078,0.0731,0.0652,0.0305,0.0216,-0.0004,-0.0114,0.0597,0.0596,0.0594,0,0.1227,0.1343,0.1537,0.1626,0.1723,0.1887,0.1988,0.2096,0.2181,0.2268,0.2319,0.2198,0.2092,0.165,0.124,0.0827,0.0649,0.0552,0.053,0.0307,0.0147,0.0099,0.002,0.0398,0.0395,0.0393,0.0391,0,0.1372,0.1419,0.1554,0.1706,0.1842,0.2,0.2163,0.2249,0.2368,0.2437,0.2493,0.2426,0.2029,0.1592,0.1072,0.0786,0.0383,0.0496,0.0261,0.0001,-0.0062,-0.0214,0.0457,0.037,0.0372,0.0373,0.0375,0.0375,0.1435,0.152,0.1652,0.1792,0.1934,0.2091,0.2202,0.2348,0.2483,0.2575,0.2575,0.248,0.1913,0.1183,0.0813,0.0123,0.0199,-0.0067,-0.0152,-0.0175,-0.0283,0.0367,0.0199,0.02,0.0201,0.0201,0.0202,0,0.151,0.1596,0.1731,0.1889,0.2019,0.2101,0.2295,0.2383,0.2505,0.2581,0.2608,0.2206,0.1538,0.0895,-0.0008,-0.0453,-0.0601,-0.0679,-0.0797,-0.0842,-0.0298,-0.0309,-0.059,-0.059,-0.059,-0.0589,-0.0589,-0.0589,0.1546,0.167,0.1725,0.1925,0.2031,0.2194,0.2289,0.2404,0.2479,0.2472,0.2361,0.2261,0.1709,0.0232,-0.0811,-0.1049,-0.1329,-0.1394,-0.1492,-0.1171,-0.1122,-0.1074,-0.1111,-0.1555,-0.1557,-0.2027,-0.2032,-0.2036]}],[{"header":{"parameterUnit":"m.s-1","parameterCategory":2,"la1":30.2991,"la2":30.254,"lo1":-89.0895,"lo2":-89.0444,"dy":0.0017,"dx":0.0017,"nx":28,"ny":28,"refTime":"2024-09-02T21:00:00:Z","depth":"2","parameterNumber":2,"parameterNumberName":"U-component_of_CURRENTS"},"data":[0,0,0,0,0,0,0,0,0,0,0,0,0,0,0,0,0,0,0,0,0,0,0,0,0,0,0,0,0,0,0,0,0,0,0,0,0,0,0,0,0,0,0,0,0,0,0,0,0,0,0,0,0,0,0,0,0,0,0.1043,0.1044,0,0.1105,0.1105,0.1106,0.1114,0.1113,0.1113,0.1113,0.1104,0.1104,0.1104,0,0,0,0,0,0,0,0,0,0,0,0,0,0.0913,0.0915,0.1043,0.1044,0.1045,0.1105,0.1105,0.1106,0.1114,0.1113,0.1113,0.1113,0.1104,0.1104,0.1104,0,0,0,0,0,0,0,0,0,0,0,0,0,0.0969,0.0916,0.1043,0.1058,0.106,0.1105,0.1105,0.1106,0.1114,0.1113,0.1113,0.1112,0.1104,0.1104,0.1104,0.1115,0,0,0.1105,0.1105,0,0,0,0,0,0,0,0,0.0965,0.0973,0.1055,0.1057,0.106,0.1104,0.1057,0.1106,0.1114,0.109,0.1113,0.1112,0.11,0.11,0.111,0.1114,0.1114,0.1105,0.1105,0.1105,0.1105,0,0,0,0,0,0,0,0.0962,0.097,0.1064,0.1056,0.1059,0.1056,0.1063,0.1066,0.1093,0.1092,0.1094,0.1106,0.11,0.111,0.1109,0.1114,0.1105,0.1105,0.1105,0.1105,0.115,0.1151,0,0,0,0,0,0,0.0962,0.0967,0.1062,0.1066,0.1014,0.1059,0.1067,0.1088,0.1095,0.1097,0.1106,0.1106,0.111,0.1109,0.1109,0.1135,0.1105,0.1105,0.1105,0.1149,0.115,0.1151,0,0,0,0,0,0,0.0959,0.097,0.106,0.102,0.1031,0.1062,0.1085,0.1089,0.1104,0.1107,0.1107,0.1117,0.1109,0.1109,0.1122,0.1134,0.1105,0.1105,0.1148,0.1149,0.1151,0.1177,0,0,0,0,0,0,0.0955,0.0969,0.0982,0.102,0.1034,0.1094,0.1086,0.1091,0.1113,0.1113,0.1116,0.1115,0.1109,0.1122,0.1122,0.1133,0.1105,0.1146,0.1148,0.115,0.1175,0.1179,0.1183,0,0,0,0,0,0.095,0.0976,0.0982,0.0994,0.1052,0.1095,0.1101,0.1119,0.1114,0.1128,0.113,0.1115,0.1135,0.1123,0.1123,0.1134,0.1145,0.1148,0.115,0.1173,0.1178,0.1183,0,0,0,0,0,0,0.0931,0.0981,0.0988,0.1029,0.1061,0.1097,0.1115,0.1124,0.1138,0.1136,0.1128,0.1128,0.1146,0.114,0.1127,0.1156,0.1138,0.1141,0.1156,0.1161,0.1165,0.1163,0.1105,0,0,0,0,0,0.0932,0.0963,0.1006,0.1038,0.1055,0.1083,0.1102,0.1117,0.1137,0.1143,0.1145,0.1149,0.1158,0.1158,0.1167,0.1179,0.1202,0.1188,0.1192,0.1196,0.1196,0.1229,0.1236,0.116,0.116,0.116,0,0,0.0935,0.0966,0.0984,0.1035,0.106,0.1092,0.1093,0.113,0.1151,0.1139,0.1162,0.1167,0.1167,0.1185,0.1192,0.1179,0.1241,0.1199,0.1202,0.12,0.1232,0.1239,0.1246,0.1162,0.1161,0.1161,0,0,0.0956,0.0982,0.1012,0.1041,0.1085,0.1104,0.1115,0.1156,0.1166,0.1195,0.119,0.12,0.1217,0.1215,0.1217,0.125,0.1266,0.1257,0.127,0.1301,0.1308,0.1313,0.1397,0.1409,0.1253,0.1253,0.1253,0,0.0953,0.0999,0.1027,0.1062,0.1084,0.1109,0.1141,0.1161,0.1198,0.1207,0.1207,0.1239,0.1231,0.1247,0.1256,0.1257,0.1299,0.1247,0.1307,0.1312,0.1317,0.1401,0.1415,0.1255,0.1255,0.1254,0.1254,0,0.0998,0.103,0.1052,0.1099,0.1125,0.116,0.1191,0.1213,0.1227,0.1245,0.1274,0.1276,0.1302,0.1292,0.1281,0.1313,0.1343,0.1312,0.129,0.1327,0.1413,0.1427,0.1257,0.1256,0.1256,0.1256,0,0,0.1006,0.1068,0.1074,0.1094,0.1146,0.1173,0.1206,0.1242,0.1264,0.1293,0.1326,0.133,0.1346,0.1349,0.1342,0.1344,0.1423,0.1344,0.1345,0.1424,0.1545,0.1526,0.154,0.1405,0.1406,0.1407,0.1608,0,0.1029,0.1084,0.1112,0.1157,0.1187,0.1214,0.1241,0.1274,0.1302,0.1341,0.1348,0.1384,0.1367,0.1387,0.1396,0.1411,0.1454,0.1375,0.1501,0.1506,0.148,0.1551,0.1447,0.1611,0.1621,0.1623,0.1625,0,0.1066,0.1095,0.1139,0.1182,0.1197,0.1223,0.1267,0.13,0.1351,0.1374,0.1419,0.1449,0.1489,0.1457,0.1539,0.1496,0.1538,0.1539,0.1547,0.1522,0.151,0.1568,0.1636,0.1648,0.1646,0.1644,0.1643,0,0.1056,0.1113,0.114,0.1159,0.1213,0.123,0.1259,0.1308,0.1338,0.1409,0.145,0.1513,0.1557,0.1603,0.1658,0.161,0.1745,0.1685,0.172,0.1723,0.1653,0.1644,0.1756,0.1756,0.1755,0.1754,0.1754,0,0.1073,0.1097,0.1135,0.1154,0.1182,0.1226,0.1266,0.13,0.1364,0.1415,0.1479,0.1538,0.1589,0.1682,0.1713,0.179,0.1821,0.175,0.1767,0.1664,0.1655,0.168,0.1668,0.1762,0.176,0.1759,0.1758,0,0.1067,0.1095,0.1125,0.1168,0.118,0.1202,0.1262,0.1295,0.1361,0.1438,0.1474,0.158,0.1687,0.1767,0.1852,0.1866,0.1927,0.195,0.1856,0.1855,0.1876,0.1864,0.2006,0.2007,0.2007,0.2008,0.2009,0,0.1075,0.1089,0.1119,0.113,0.1148,0.1186,0.1214,0.128,0.1329,0.1464,0.1507,0.1637,0.1722,0.1875,0.1917,0.2019,0.1994,0.197,0.1824,0.1897,0.19,0.1886,0.1873,0.178,0.1779,0.1778,0.1777,0,0.1078,0.1079,0.1093,0.1113,0.1134,0.1166,0.1221,0.1257,0.1359,0.1422,0.1538,0.1617,0.177,0.1818,0.1944,0.196,0.1935,0.1947,0.2073,0.1707,0.1692,0.1692,0.1685,0.1767,0.1768,0.1768,0.1769,0.1769,0.1062,0.1064,0.1074,0.1094,0.1116,0.115,0.1175,0.124,0.1305,0.1419,0.1514,0.1611,0.1702,0.1814,0.1822,0.183,0.1909,0.1846,0.1846,0.1849,0.176,0.1744,0.1817,0.1818,0.1819,0.182,0.1821,0,0.1037,0.1045,0.1061,0.1079,0.1094,0.1118,0.1181,0.1199,0.1258,0.1397,0.1481,0.1471,0.1558,0.1636,0.1653,0.1681,0.1618,0.1607,0.1525,0.1539,0.1551,0.1441,0.1417,0.1415,0.1413,0.1412,0,0,0.1019,0.1021,0.1035,0.1052,0.107,0.1084,0.1112,0.1131,0.122,0.1275,0.1354,0.1526,0.1641,0.1523,0.1522,0.1483,0.1482,0.1426,0.1763,0.1684,0.1692,0.1718,0.1571,0,0,0,0,0]},{"header":{"parameterUnit":"m.s-1","parameterCategory":2,"la1":30.2991,"la2":30.254,"lo1":-89.0895,"lo2":-89.0444,"dy":0.0017,"dx":0.0017,"nx":28,"ny":28,"refTime":"2024-09-02T21:00:00:Z","depth":"2","parameterNumber":3,"parameterNumberName":"V-component_of_CURRENTS"},"data":[0,0,0,0,0,0,0,0,0,0,0,0,0,0,0,0,0,0,0,0,0,0,0,0,0,0,0,0,0,0,0,0,0,0,0,0,0,0,0,0,0,0,0,0,0,0,0,0,0,0,0,0,0,0,0,0,0,0,-0.0376,-0.0377,0,-0.0437,-0.0438,-0.0439,-0.0478,-0.0478,-0.0478,-0.0478,-0.0568,-0.057,-0.0573,0,0,0,0,0,0,0,0,0,0,0,0,0,-0.0361,-0.0361,-0.0376,-0.0377,-0.0377,-0.0437,-0.0438,-0.0439,-0.0478,-0.0478,-0.0478,-0.0478,-0.0567,-0.057,-0.0573,0,0,0,0,0,0,0,0,0,0,0,0,0,-0.0391,-0.0361,-0.0376,-0.0403,-0.0405,-0.0437,-0.0438,-0.0439,-0.0478,-0.0478,-0.0478,-0.0478,-0.0566,-0.057,-0.0573,-0.0593,0,0,-0.0584,-0.0586,0,0,0,0,0,0,0,0,-0.0389,-0.0392,-0.0398,-0.0401,-0.0404,-0.0448,-0.0466,-0.0492,-0.0478,-0.0452,-0.0478,-0.0478,-0.053,-0.0536,-0.0549,-0.0597,-0.0601,-0.0584,-0.0586,-0.0588,-0.0589,0,0,0,0,0,0,0,-0.0387,-0.039,-0.0402,-0.0399,-0.0402,-0.0435,-0.0438,-0.0471,-0.0491,-0.0454,-0.0457,-0.0461,-0.0532,-0.0546,-0.0552,-0.0602,-0.0584,-0.0587,-0.059,-0.0591,-0.0678,-0.0678,0,0,0,0,0,0,-0.0372,-0.0387,-0.04,-0.0404,-0.0395,-0.0434,-0.0439,-0.0436,-0.0491,-0.0498,-0.0461,-0.0462,-0.054,-0.0548,-0.0555,-0.0601,-0.0588,-0.0591,-0.0593,-0.0677,-0.0678,-0.0678,0,0,0,0,0,0,-0.0371,-0.0372,-0.0398,-0.0396,-0.0401,-0.0434,-0.043,-0.0437,-0.045,-0.0495,-0.0503,-0.0467,-0.054,-0.055,-0.0593,-0.0604,-0.0593,-0.0596,-0.0677,-0.0678,-0.0678,-0.0679,0,0,0,0,0,0,-0.0371,-0.0372,-0.0363,-0.0395,-0.0401,-0.0418,-0.043,-0.0438,-0.0452,-0.0454,-0.0503,-0.0512,-0.0541,-0.0588,-0.0597,-0.0608,-0.0599,-0.0677,-0.0677,-0.0678,-0.0679,-0.068,-0.068,0,0,0,0,0,-0.037,-0.0358,-0.0362,-0.0364,-0.0388,-0.0418,-0.0425,-0.045,-0.0452,-0.0461,-0.0497,-0.051,-0.0596,-0.0592,-0.0602,-0.0614,-0.0677,-0.0677,-0.0678,-0.0679,-0.0679,-0.068,0,0,0,0,0,0,-0.0347,-0.0362,-0.0367,-0.036,-0.0387,-0.0424,-0.043,-0.0446,-0.0481,-0.0483,-0.0522,-0.0534,-0.0563,-0.059,-0.0584,-0.0638,-0.0635,-0.0637,-0.0632,-0.0633,-0.0634,-0.0604,-0.0602,0,0,0,0,0,-0.0336,-0.0331,-0.0358,-0.0354,-0.0363,-0.0395,-0.0408,-0.0427,-0.0461,-0.0476,-0.051,-0.0544,-0.0573,-0.0605,-0.0626,-0.0672,-0.0668,-0.0682,-0.0683,-0.0683,-0.0665,-0.0683,-0.0683,-0.0679,-0.0679,-0.0679,0,0,-0.0326,-0.0333,-0.033,-0.0349,-0.0369,-0.0393,-0.0404,-0.0423,-0.0447,-0.0481,-0.0519,-0.0539,-0.0579,-0.062,-0.0637,-0.065,-0.0681,-0.0684,-0.0684,-0.0665,-0.0683,-0.0683,-0.0684,-0.068,-0.068,-0.068,0,0,-0.0317,-0.0309,-0.0312,-0.0333,-0.036,-0.0384,-0.0387,-0.0425,-0.0443,-0.0479,-0.0504,-0.0535,-0.0585,-0.0625,-0.0648,-0.0667,-0.0667,-0.067,-0.0674,-0.0692,-0.0693,-0.0693,-0.0681,-0.068,-0.0691,-0.0691,-0.0691,0,-0.0303,-0.031,-0.032,-0.0336,-0.0349,-0.0379,-0.0397,-0.0424,-0.0473,-0.0481,-0.0487,-0.0544,-0.0586,-0.0636,-0.0646,-0.0668,-0.0662,-0.0672,-0.0693,-0.0693,-0.0693,-0.0681,-0.068,-0.0692,-0.0692,-0.0692,-0.0692,0,-0.0312,-0.0315,-0.0318,-0.0347,-0.0364,-0.0381,-0.0418,-0.0439,-0.0453,-0.0474,-0.05,-0.0552,-0.0568,-0.061,-0.0639,-0.0666,-0.0654,-0.0675,-0.069,-0.0693,-0.068,-0.0679,-0.0692,-0.0692,-0.0692,-0.0692,0,0,-0.0288,-0.0317,-0.032,-0.0325,-0.0367,-0.0379,-0.0415,-0.0445,-0.0447,-0.049,-0.0485,-0.0559,-0.0543,-0.0567,-0.0607,-0.0663,-0.0671,-0.0671,-0.0672,-0.0655,-0.0681,-0.072,-0.0722,-0.0696,-0.0696,-0.0696,-0.0669,0,-0.0294,-0.0314,-0.0332,-0.0351,-0.0362,-0.0389,-0.0409,-0.0437,-0.0456,-0.0459,-0.0501,-0.0495,-0.0539,-0.0527,-0.0584,-0.0638,-0.0668,-0.0674,-0.0682,-0.0681,-0.0714,-0.0723,-0.0688,-0.0665,-0.0667,-0.0667,-0.0667,0,-0.0309,-0.0312,-0.0328,-0.0333,-0.0338,-0.0349,-0.0363,-0.0386,-0.0405,-0.0407,-0.0411,-0.0403,-0.0444,-0.0478,-0.0559,-0.0554,-0.0594,-0.066,-0.066,-0.0691,-0.0719,-0.0664,-0.0663,-0.0665,-0.0665,-0.0666,-0.0666,0,-0.0295,-0.0311,-0.0314,-0.0321,-0.0337,-0.0332,-0.0337,-0.0361,-0.0355,-0.0345,-0.032,-0.0348,-0.0345,-0.0406,-0.0479,-0.0507,-0.0575,-0.0626,-0.0698,-0.07,-0.0667,-0.0667,-0.0667,-0.0667,-0.0667,-0.0667,-0.0667,0,-0.0301,-0.0303,-0.0295,-0.0295,-0.0271,-0.0291,-0.0266,-0.0281,-0.0272,-0.0248,-0.0258,-0.0247,-0.033,-0.036,-0.0437,-0.0545,-0.0515,-0.0684,-0.0701,-0.0668,-0.0668,-0.0669,-0.0669,-0.0666,-0.0666,-0.0666,-0.0666,0,-0.0303,-0.0308,-0.0297,-0.0281,-0.0265,-0.0245,-0.0206,-0.0185,-0.0188,-0.0153,-0.0123,-0.0159,-0.022,-0.0296,-0.0409,-0.0497,-0.0591,-0.063,-0.0568,-0.0581,-0.0713,-0.0714,-0.0721,-0.0722,-0.0723,-0.0724,-0.0725,0,-0.0315,-0.0308,-0.0268,-0.0233,-0.0219,-0.0179,-0.0144,-0.0139,-0.0116,-0.0108,-0.0085,-0.0116,-0.0139,-0.0306,-0.0455,-0.0568,-0.0599,-0.0627,-0.0705,-0.0706,-0.0721,-0.0721,-0.072,-0.0646,-0.0646,-0.0647,-0.0647,0,-0.0314,-0.0294,-0.0268,-0.0192,-0.0142,-0.0092,-0.0044,-0.0016,-0.0007,0.0017,0.0023,0.0013,-0.0153,-0.0285,-0.0454,-0.0545,-0.0611,-0.0639,-0.0634,-0.0659,-0.064,-0.0654,-0.0655,-0.0647,-0.0647,-0.0647,-0.0647,-0.0647,-0.03,-0.0267,-0.021,-0.014,-0.0072,-0.0004,0.0045,0.0083,0.0126,0.0184,0.0123,0.014,-0.0063,-0.0267,-0.045,-0.0628,-0.0663,-0.0714,-0.0711,-0.0709,-0.0726,-0.0714,-0.0734,-0.0735,-0.0735,-0.0735,-0.0736,0,-0.0275,-0.0223,-0.0154,-0.0063,0.0025,0.005,0.0121,0.017,0.023,0.0294,0.0314,0.0201,0.0019,-0.0177,-0.0455,-0.0668,-0.0665,-0.0713,-0.0661,-0.0661,-0.066,-0.0673,-0.0667,-0.0667,-0.0667,-0.0667,0,0,-0.0258,-0.0183,-0.014,0.0009,0.0089,0.0205,0.0252,0.031,0.037,0.0448,0.0501,0.0455,0.0159,-0.0021,-0.0322,-0.0478,-0.0512,-0.0505,-0.0541,-0.0446,-0.0442,-0.0649,-0.0667,0,0,0,0,0]}],[{"header":{"parameterUnit":"m.s-1","parameterCategory":2,"la1":30.2991,"la2":30.254,"lo1":-89.0895,"lo2":-89.0444,"dy":0.0017,"dx":0.0017,"nx":28,"ny":28,"refTime":"2024-09-02T21:00:00:Z","depth":"4","parameterNumber":2,"parameterNumberName":"U-component_of_CURRENTS"},"data":[0,0,0,0,0,0,0,0,0,0,0,0,0,0,0,0,0,0,0,0,0,0,0,0,0,0,0,0,0,0,0,0,0,0,0,0,0,0,0,0,0,0,0,0,0,0,0,0,0,0,0,0,0,0,0,0,0,0,0.068,0.0681,0,0.0707,0.0707,0.0707,0.0744,0.0745,0.0746,0.0746,0.078,0.078,0.0781,0,0,0,0,0,0,0,0,0,0,0,0,0,0.0631,0.0632,0.068,0.0681,0.0681,0.0707,0.0707,0.0708,0.0744,0.0745,0.0746,0.0747,0.078,0.078,0.0781,0,0,0,0,0,0,0,0,0,0,0,0,0,0.0654,0.0632,0.068,0.0702,0.0705,0.0707,0.0707,0.0708,0.0744,0.0745,0.0746,0.0747,0.078,0.078,0.0781,0.0765,0,0,0.0782,0.0783,0,0,0,0,0,0,0,0,0.0653,0.0656,0.0699,0.0701,0.0703,0.0723,0.0702,0.0727,0.0744,0.0729,0.0746,0.0747,0.0761,0.0763,0.0766,0.0767,0.0768,0.0782,0.0783,0.0783,0.0783,0,0,0,0,0,0,0,0.0651,0.0655,0.0691,0.0699,0.0702,0.0701,0.0705,0.0707,0.074,0.0731,0.0733,0.0736,0.0763,0.0765,0.0767,0.0769,0.0782,0.0783,0.0783,0.0783,0.0824,0.0824,0,0,0,0,0,0,0.0649,0.0654,0.069,0.0692,0.068,0.0701,0.0706,0.0716,0.074,0.0744,0.0735,0.0738,0.0764,0.0766,0.0768,0.0811,0.0783,0.0783,0.0784,0.0823,0.0824,0.0825,0,0,0,0,0,0,0.0648,0.0652,0.0689,0.0673,0.0677,0.0701,0.0712,0.0716,0.0739,0.0743,0.0748,0.0756,0.0765,0.0768,0.0792,0.0811,0.0784,0.0784,0.0822,0.0823,0.0824,0.0859,0,0,0,0,0,0,0.0646,0.0652,0.0663,0.0673,0.0678,0.0703,0.0711,0.0716,0.0738,0.0742,0.0762,0.0765,0.0766,0.0791,0.0792,0.0811,0.0784,0.0821,0.0822,0.0824,0.0856,0.0861,0.0865,0,0,0,0,0,0.0645,0.0655,0.0664,0.0668,0.0692,0.0704,0.0707,0.0726,0.0738,0.075,0.0768,0.0765,0.0801,0.0792,0.0793,0.0813,0.082,0.0822,0.0824,0.0855,0.086,0.0864,0,0,0,0,0,0,0.0635,0.066,0.067,0.0687,0.07,0.071,0.0724,0.0734,0.0756,0.0768,0.0773,0.0777,0.0804,0.0802,0.0792,0.0829,0.0811,0.0813,0.0834,0.0839,0.0843,0.0837,0.0785,0,0,0,0,0,0.0638,0.0657,0.0674,0.0687,0.0699,0.0714,0.0724,0.0737,0.0754,0.0766,0.0782,0.0797,0.0807,0.082,0.0827,0.0846,0.0842,0.086,0.0864,0.0867,0.0864,0.0874,0.0879,0.083,0.083,0.083,0,0,0.0635,0.0653,0.0662,0.0687,0.0703,0.072,0.0724,0.0745,0.0763,0.0764,0.0802,0.081,0.0814,0.0838,0.085,0.0844,0.0882,0.087,0.0873,0.0867,0.0877,0.0881,0.0886,0.0832,0.0831,0.0831,0,0,0.0637,0.066,0.0678,0.0694,0.0722,0.0732,0.0743,0.0768,0.0787,0.0814,0.0821,0.0841,0.0863,0.087,0.0874,0.0902,0.0899,0.0911,0.0932,0.0943,0.0947,0.095,0.0962,0.0966,0.0918,0.0918,0.0918,0,0.0632,0.0663,0.0683,0.0705,0.0721,0.0742,0.0761,0.0779,0.0809,0.0825,0.0833,0.0869,0.0874,0.0895,0.0909,0.091,0.0918,0.0914,0.0948,0.0951,0.0954,0.0965,0.0969,0.092,0.092,0.0919,0.0919,0,0.0651,0.0677,0.069,0.0728,0.0745,0.0767,0.0791,0.0818,0.0844,0.086,0.0895,0.0904,0.0926,0.0932,0.093,0.0957,0.0957,0.0948,0.0935,0.0961,0.0971,0.0974,0.0923,0.0922,0.0921,0.0921,0,0,0.0635,0.0692,0.0699,0.0721,0.0763,0.0777,0.0812,0.0845,0.0872,0.0902,0.0933,0.0952,0.0964,0.0968,0.0973,0.0982,0.1012,0.098,0.098,0.099,0.1044,0.104,0.1043,0.1015,0.1016,0.1017,0.1046,0,0.0646,0.0691,0.0717,0.0755,0.0779,0.081,0.0839,0.0871,0.0901,0.0937,0.0952,0.0983,0.0976,0.0996,0.1004,0.1009,0.1022,0.1005,0.1018,0.1019,0.101,0.1047,0.1018,0.1049,0.105,0.105,0.1051,0,0.066,0.0689,0.073,0.0778,0.0793,0.082,0.0872,0.0901,0.0947,0.0972,0.1002,0.1018,0.1043,0.1031,0.1053,0.1047,0.105,0.1048,0.1049,0.1032,0.1021,0.1015,0.1057,0.1056,0.1056,0.1055,0.1055,0,0.0644,0.0698,0.0734,0.075,0.0805,0.0835,0.0869,0.0917,0.0951,0.1001,0.1033,0.1056,0.1087,0.1085,0.1097,0.108,0.1118,0.109,0.1086,0.1086,0.1064,0.1059,0.1102,0.1102,0.1102,0.1102,0.1102,0,0.0643,0.0672,0.0734,0.0752,0.0796,0.0838,0.0889,0.0925,0.0983,0.1024,0.1056,0.1091,0.1104,0.1131,0.1117,0.1126,0.1139,0.1096,0.1096,0.1079,0.1076,0.1067,0.1062,0.1103,0.1103,0.1103,0.1102,0,0.0618,0.0662,0.0701,0.0766,0.0791,0.0823,0.0904,0.0938,0.1,0.1054,0.1078,0.1135,0.1176,0.1189,0.1199,0.1165,0.116,0.116,0.1158,0.1157,0.111,0.1107,0.1142,0.1142,0.1142,0.1142,0.1142,0,0.0613,0.0631,0.0701,0.073,0.0764,0.0824,0.0864,0.0937,0.0975,0.1075,0.1097,0.1173,0.1204,0.1212,0.1226,0.1217,0.1203,0.1186,0.1125,0.1119,0.1116,0.1112,0.1109,0.1142,0.1142,0.1142,0.1142,0,0.0589,0.0617,0.0647,0.0706,0.0755,0.0803,0.087,0.0898,0.0985,0.1045,0.1101,0.1133,0.1191,0.1202,0.1224,0.1205,0.1183,0.1187,0.1185,0.1127,0.112,0.1116,0.1113,0.1143,0.1143,0.1143,0.1143,0,0.0569,0.058,0.0626,0.0675,0.0732,0.0775,0.0814,0.0874,0.0924,0.1032,0.1052,0.1128,0.1187,0.12,0.121,0.1211,0.1179,0.1118,0.1119,0.1118,0.1099,0.1086,0.1106,0,0,0,0,0,0.0547,0.0557,0.0596,0.0646,0.0702,0.074,0.0815,0.0856,0.094,0.0962,0.1008,0.1058,0.1104,0.1141,0.1136,0.12,0.118,0.1189,0.1108,0.1146,0.1145,0.1126,0,0,0,0,0,0,0.0531,0.0559,0.0577,0.0616,0.0649,0.0706,0.0754,0.0811,0.0831,0.0915,0.0944,0.1005,0.1059,0.1097,0.1118,0.113,0.1061,0.1238,0.1236,0.1146,0.1145,0.1145,0.1125,0,0,0,0,0]},{"header":{"parameterUnit":"m.s-1","parameterCategory":2,"la1":30.2991,"la2":30.254,"lo1":-89.0895,"lo2":-89.0444,"dy":0.0017,"dx":0.0017,"nx":28,"ny":28,"refTime":"2024-09-02T21:00:00:Z","depth":"4","parameterNumber":3,"parameterNumberName":"V-component_of_CURRENTS"},"data":[0,0,0,0,0,0,0,0,0,0,0,0,0,0,0,0,0,0,0,0,0,0,0,0,0,0,0,0,0,0,0,0,0,0,0,0,0,0,0,0,0,0,0,0,0,0,0,0,0,0,0,0,0,0,0,0,0,0,-0.0099,-0.0099,0,-0.012,-0.012,-0.0121,-0.0133,-0.0133,-0.0132,-0.0132,-0.0234,-0.0237,-0.024,0,0,0,0,0,0,0,0,0,0,0,0,0,-0.0107,-0.0106,-0.0099,-0.0099,-0.0099,-0.012,-0.012,-0.0121,-0.0133,-0.0133,-0.0132,-0.0132,-0.0233,-0.0237,-0.024,0,0,0,0,0,0,0,0,0,0,0,0,0,-0.0115,-0.0106,-0.0099,-0.0106,-0.0107,-0.012,-0.012,-0.0121,-0.0133,-0.0133,-0.0132,-0.0132,-0.0232,-0.0236,-0.0241,-0.0271,0,0,-0.0254,-0.0256,0,0,0,0,0,0,0,0,-0.0114,-0.0115,-0.0105,-0.0106,-0.0106,-0.0122,-0.016,-0.0175,-0.0133,-0.0125,-0.0132,-0.0132,-0.0203,-0.021,-0.0216,-0.0276,-0.028,-0.0254,-0.0257,-0.0259,-0.026,0,0,0,0,0,0,0,-0.0114,-0.0114,-0.0109,-0.0105,-0.0106,-0.0121,-0.0122,-0.0163,-0.0168,-0.0126,-0.0126,-0.0125,-0.0204,-0.0212,-0.0219,-0.0282,-0.0254,-0.0258,-0.026,-0.0262,-0.0437,-0.0438,0,0,0,0,0,0,-0.0105,-0.0113,-0.0109,-0.011,-0.0108,-0.0121,-0.0122,-0.0119,-0.0166,-0.0172,-0.0125,-0.0126,-0.0204,-0.0214,-0.0222,-0.0307,-0.0259,-0.0263,-0.0265,-0.0434,-0.0437,-0.0439,0,0,0,0,0,0,-0.0105,-0.0104,-0.0108,-0.0111,-0.0112,-0.012,-0.0117,-0.0119,-0.0131,-0.0164,-0.0172,-0.0135,-0.0205,-0.0216,-0.0278,-0.0309,-0.0264,-0.0268,-0.0432,-0.0435,-0.0438,-0.0447,0,0,0,0,0,0,-0.0105,-0.0104,-0.0105,-0.011,-0.0111,-0.0126,-0.0117,-0.012,-0.0129,-0.013,-0.0176,-0.0184,-0.0205,-0.0271,-0.0282,-0.0314,-0.0272,-0.0429,-0.0433,-0.0437,-0.0445,-0.045,-0.0456,0,0,0,0,0,-0.0106,-0.0107,-0.0105,-0.0105,-0.011,-0.0127,-0.013,-0.0136,-0.013,-0.0145,-0.0179,-0.0183,-0.0304,-0.0276,-0.0288,-0.0323,-0.0428,-0.0432,-0.0437,-0.0442,-0.0449,-0.0455,0,0,0,0,0,0,-0.011,-0.0108,-0.0106,-0.0106,-0.012,-0.0128,-0.0139,-0.014,-0.0175,-0.018,-0.0207,-0.022,-0.0288,-0.0308,-0.0277,-0.0387,-0.0368,-0.0375,-0.0368,-0.0375,-0.038,-0.0359,-0.0275,0,0,0,0,0,-0.011,-0.011,-0.0116,-0.0117,-0.0125,-0.0132,-0.014,-0.0146,-0.0171,-0.0185,-0.0222,-0.0267,-0.0317,-0.0345,-0.0393,-0.045,-0.0454,-0.0483,-0.0488,-0.0493,-0.0486,-0.0521,-0.0528,-0.0455,-0.0454,-0.0454,0,0,-0.011,-0.011,-0.0109,-0.0119,-0.0128,-0.0151,-0.0138,-0.0154,-0.0177,-0.0194,-0.0251,-0.029,-0.0338,-0.0405,-0.0437,-0.0424,-0.0519,-0.0499,-0.0502,-0.0493,-0.0526,-0.0533,-0.0539,-0.0458,-0.0457,-0.0457,0,0,-0.0121,-0.0114,-0.0125,-0.014,-0.0156,-0.0164,-0.017,-0.0193,-0.0209,-0.0265,-0.0287,-0.0337,-0.0419,-0.0452,-0.0479,-0.0545,-0.0548,-0.0572,-0.0581,-0.0615,-0.062,-0.0625,-0.064,-0.0646,-0.0572,-0.0572,-0.0572,0,-0.0123,-0.0133,-0.0134,-0.0156,-0.0164,-0.0172,-0.0193,-0.0217,-0.0261,-0.0279,-0.0291,-0.0401,-0.0438,-0.0504,-0.053,-0.0555,-0.057,-0.0546,-0.0619,-0.0623,-0.0628,-0.0643,-0.0649,-0.0573,-0.0573,-0.0573,-0.0573,0,-0.0151,-0.0159,-0.0169,-0.0195,-0.021,-0.0227,-0.0253,-0.0282,-0.0303,-0.0327,-0.0399,-0.0452,-0.0509,-0.054,-0.0557,-0.0617,-0.0616,-0.0619,-0.0591,-0.0635,-0.0649,-0.0655,-0.0575,-0.0574,-0.0574,-0.0574,0,0,-0.0151,-0.0179,-0.0186,-0.0191,-0.0227,-0.0236,-0.0282,-0.0316,-0.0336,-0.0399,-0.0435,-0.0524,-0.0538,-0.057,-0.06,-0.0633,-0.0681,-0.0641,-0.0643,-0.0637,-0.0749,-0.069,-0.0691,-0.0699,-0.0701,-0.0702,-0.0744,0,-0.0172,-0.0202,-0.0218,-0.0246,-0.0256,-0.0276,-0.0311,-0.0346,-0.0383,-0.0428,-0.0478,-0.0534,-0.0554,-0.0581,-0.062,-0.0667,-0.0699,-0.0668,-0.0724,-0.0725,-0.0651,-0.0697,-0.0706,-0.0749,-0.0751,-0.0752,-0.0752,0,-0.0199,-0.0206,-0.0233,-0.0245,-0.0253,-0.0278,-0.0309,-0.0345,-0.0407,-0.0435,-0.0492,-0.0533,-0.0596,-0.0605,-0.0694,-0.0675,-0.0713,-0.0745,-0.0747,-0.0689,-0.0677,-0.0699,-0.0764,-0.0763,-0.0762,-0.0761,-0.0761,0,-0.0185,-0.0215,-0.0226,-0.0235,-0.0262,-0.0276,-0.0297,-0.0348,-0.0367,-0.0439,-0.0456,-0.0542,-0.0573,-0.0646,-0.0706,-0.071,-0.0791,-0.0801,-0.0783,-0.0778,-0.0811,-0.0805,-0.0863,-0.0863,-0.0863,-0.0862,-0.0862,0,-0.0192,-0.0202,-0.0217,-0.0221,-0.0229,-0.0257,-0.028,-0.0313,-0.0358,-0.0372,-0.0452,-0.0471,-0.0586,-0.0642,-0.0708,-0.0754,-0.0792,-0.0786,-0.0789,-0.0816,-0.0811,-0.0815,-0.0809,-0.0864,-0.0864,-0.0863,-0.0863,0,-0.0182,-0.0198,-0.0202,-0.0218,-0.0222,-0.0229,-0.0253,-0.0266,-0.031,-0.033,-0.0348,-0.0424,-0.0491,-0.059,-0.0699,-0.0733,-0.08,-0.0806,-0.0814,-0.0817,-0.0766,-0.0761,-0.0799,-0.0797,-0.0796,-0.0794,-0.0794,0,-0.0182,-0.0182,-0.0188,-0.0181,-0.0189,-0.02,-0.0203,-0.0243,-0.0249,-0.0286,-0.0286,-0.0355,-0.0409,-0.0501,-0.0623,-0.0743,-0.0753,-0.0789,-0.0795,-0.0762,-0.0762,-0.0759,-0.0755,-0.0791,-0.0791,-0.0791,-0.079,0,-0.0168,-0.0172,-0.0168,-0.0151,-0.0149,-0.0144,-0.015,-0.0143,-0.0176,-0.0213,-0.0208,-0.0273,-0.0339,-0.0452,-0.0543,-0.0633,-0.0773,-0.0775,-0.0779,-0.0785,-0.0753,-0.0754,-0.0752,-0.0785,-0.0786,-0.0786,-0.0787,0,-0.0155,-0.0145,-0.0135,-0.0118,-0.0106,-0.0083,-0.0096,-0.0085,-0.0094,-0.0127,-0.0122,-0.0208,-0.0278,-0.0394,-0.0481,-0.0562,-0.0586,-0.0611,-0.0624,-0.0631,-0.0571,-0.0505,-0.0465,0,0,0,0,0,-0.0141,-0.0121,-0.0099,-0.0077,-0.0058,-0.0051,-0.0052,-0.0065,-0.0088,-0.0061,-0.0086,-0.0141,-0.0254,-0.0321,-0.0387,-0.0477,-0.0622,-0.0558,-0.0661,-0.0758,-0.0764,-0.0717,0,0,0,0,0,0,-0.0133,-0.011,-0.0091,-0.0038,-0.0011,0.0009,0.0013,-0.0003,0.0005,-0.0023,-0.0081,-0.0134,-0.0255,-0.0199,-0.0374,-0.0407,-0.0476,-0.0629,-0.063,-0.0755,-0.076,-0.0765,-0.0718,0,0,0,0,0]}]]